Other Public Products
Issued by NWS Grand Forks, ND

Home | Current Version | Previous Version | Graphics & Text | Print | Product List | Glossary On
Versions: 1 2 3 4 5 6 7 8 9 10 11 12 13 14 15 16 17 18 19 20 21 22 23 24 25 26 27 28 29 30 31 32 33 34 35 36 37 38 39 40 41 42 43 44 45 46 47 48 49 50
000
FPUS83 KFGF 021310
OPUFGF
PRAIRIE TO PINES WEATHER ROUNDUP
NATIONAL WEATHER SERVICE EASTERN NORTH DAKOTA/GRAND FORKS ND
800 AM CDT THU JUL 02 2015

 **SATELLITE DATA USED TO AUGMENT SKY COVER AT AUTOMATED STATIONS**
 *****  WEATHER ACROSS EASTERN NORTH DAKOTA  *****

CITY           SKY/WX    TMP DP  RH WIND       PRES   REMARKS
GRAND FORKS    MOSUNNY   60  56  86 S9        29.95F
GRAND FORKS AF SUNNY     62  58  88 S8        29.96S
GRAND CITY NWS   N/A     59 N/A N/A S13         N/A
BUXTON         NOT AVBL
DEVILS LAKE    CLOUDY    66  61  82 S6        29.94S
FARGO          SUNNY     61  54  77 S8        29.99R
WAHPETON ARPT  NOT AVBL
$$

 *****  WEATHER ACROSS CENTRAL AND WESTERN NORTH DAKOTA  *****

CITY           SKY/WX    TMP DP  RH WIND       PRES   REMARKS
JAMESTOWN      CLOUDY    64  60  87 S6        29.96S
BISMARCK       MOSUNNY   65  63  93 N3        29.98R FOG
MINOT          MOSUNNY   64  60  87 W6        29.97R FOG
MINOT AFB      MOSUNNY   63  63 100 NW5       29.96S FOG
GARRISON         N/A     62  61  96 NW8       29.98S
WILLISTON      MOSUNNY   59  54  83 CALM      30.03R
DICKINSON      SUNNY     61  58  90 W7        30.02S FOG
HETTINGER      MOSUNNY   62  59  90 NW10      30.05R FOG
$$

 *****  OTHER OBSERVATIONS NORTHEAST NORTH DAKOTA  *****

CITY           SKY/WX    TMP DP  RH WIND       PRES   REMARKS
WALHALLA       FAIR      66  66 100 MISG      29.93S
LANGDON        FAIR      64  64 100 S8        29.95S FOG
CAVALIER       FAIR      63  61  94 S5        29.93F FOG
GRAFTON        FAIR      61  61 100 S7        29.95F
CANDO          FAIR      64  63  94 CALM      29.95S FOG
FORT TOTTEN      N/A     65  64  95 SE3       29.95S
ROLLA          FAIR      64  64 100 NW5       29.97S
RUGBY          NOT AVBL
 ***** THE ABOVE OBSERVATIONS ARE NON NWS ARE NOT QUALITY
        CONTROLLED AND MAY MIS-REPORT RAIN FOR SNOW...
$$

 *****  OTHER OBSERVATIONS SOUTHEAST NORTH DAKOTA *****

CITY           SKY/WX    TMP DP  RH WIND       PRES   REMARKS
COOPERSTOWN    NOT AVBL
VALLEY CITY    CLOUDY    63  63 100 S8        29.98S
OAKES            N/A     63  63 100 S8        29.97S
GWINNER        PTSUNNY   64  57  77 SE3       29.99S
BUFFALO        NOT AVBL
WYNDMERE       NOT AVBL
 ***** THE ABOVE OBSERVATIONS ARE NON NWS ARE NOT QUALITY
       CONTROLLED AND MAY MIS-REPORT RAIN FOR SNOW...
$$

  *****  WEATHER ACROSS NORTHERN MINNESOTA  *****

CITY           SKY/WX    TMP DP  RH WIND       PRES   REMARKS
FLAG ISLAND    HVY RAIN  64  57  77 SW13      29.94S
WARROAD        SUNNY     63  57  82 SW6       29.97F
ROSEAU         MOSUNNY   63  55  77 S7        29.97S
HALLOCK        NOT AVBL
THF RVR FALLS  SUNNY     61  55  82 S7        29.99S
HALSTAD        NOT AVBL
FOSSTON        SUNNY     59  55  88 CALM      30.01S
BAUDETTE       SUNNY     64  56  75 SW3       29.97S
WASKISH        SUNNY     66  59  77 SW7       30.00S
CROOKSTON      SUNNY     61  55  82 S8        29.99S
$$
  *****  WEATHER ACROSS CENTRAL AND WEST MINNESOTA  *****

CITY           SKY/WX    TMP DP  RH WIND       PRES   REMARKS
BEMIDJI        SUNNY     61  56  85 SW5       30.02R
PARK RAPIDS    CLOUDY    63  57  81 CALM      30.03R
WADENA           N/A     61  55  82 SW3       30.03S
DETROIT LAKES  SUNNY     63  54  72 S7        30.04R
MOORHEAD       SUNNY     59  55  88 S8        30.00S
FERGUS FALLS   SUNNY     61  54  77 S8        30.02S
ELBOW LAKE     FAIR      59  55  84 S8        30.03R
MORRIS MN      SUNNY     59  55  88 SE5       30.03R
STAPLES        PTSUNNY   61  54  77 S3        30.04R
WHEATON        SUNNY     55  54  94 SE7       30.03R
$$
  *****  WEATHER ELSEWHERE ACROSS MINNESOTA  *****

CITY           SKY/WX    TMP DP  RH WIND       PRES   REMARKS
DULUTH         MOSUNNY   64  55  72 W7        30.03F
INTRNTL FALLS  SUNNY     61  58  90 W5        29.98F
ELY            MOSUNNY   55  54  94 CALM      30.02S
CLOQUET        SUNNY     59  55  88 CALM      30.03F
BRAINERD       MOSUNNY   63  56  78 S3        30.04R
HIBBING        CLOUDY    57  56  96 CALM      30.02F
ALEXANDRIA     MOSUNNY   61  54  77 S6        30.05R
SAINT CLOUD    SUNNY     60  56  86 CALM      30.04R
MINNEAPOLIS    SUNNY     63  53  70 CALM      30.04S
$$

  *****  WEATHER ACROSS SOUTH DAKOTA  *****

CITY           SKY/WX    TMP DP  RH WIND       PRES   REMARKS
SIOUX FALLS    CLOUDY    60  53  77 E7        30.00S
BROOKINGS      CLOUDY    57  54  88 SE8       30.02F
WATERTOWN      PTSUNNY   61  55  81 SE9       30.00S
HURON          CLOUDY    60  57  89 E9        29.96R
SISSETON         N/A     58  56  93 S7        29.99S
ABERDEEN       LGT RAIN  62  58  86 S7        29.97S FOG
MITCHELL       LGT RAIN  60  58  92 SE9       29.96F
PIERRE         LGT RAIN  61  60  97 SE8       29.96R
MOBRIDGE       HVY RAIN  64  64 100 NE3       29.96R FOG
RAPID CITY     SUNNY     65  62  90 N14       30.06R
$$

  *****  SOME WEATHER IN NEARBY STATES *****

CITY           SKY/WX    TMP DP  RH WIND       PRES   REMARKS
GLASGOW MT     SUNNY     59  55  87 W7        30.08R
GREAT FALLS MT SUNNY     62  52  69 W5        30.21R
CHEYENNE WY    PTSUNNY   56  54  93 W12       30.26F
SCOTTSBLUFF NE PTSUNNY   62  62 100 NW12      30.14R
OMAHA NE       CLOUDY    64  59  83 E5        29.95F
DES MOINES IA  CLOUDY    61  54  77 E7        29.99R
DAVENPORT IA   SUNNY     58  49  72 E13       30.01R
CHICAGO IL     CLOUDY    57  53  86 NE8       30.01R
EAU CLAIRE WI  SUNNY     56  52  86 E7        30.04F
LA CROSSE WI   SUNNY     55  52  89 E5        30.04F
$$

  *****  SOME NATIONAL WEATHER *****

CITY           SKY/WX    TMP DP  RH WIND       PRES   REMARKS
LA GUARDIA NY  PTSUNNY   72  58  61 NW5       29.90R
RALEIGH NC     CLOUDY    76  71  85 SW7       29.94S FOG
ATLANTA GA     MOSUNNY   73  66  78 SW12      30.04S
NEW ORLEANS LA CLOUDY    79  73  82 S7        30.08S
OKLAHOMA CITY  PTSUNNY   77  69  76 S15       29.90S
ALBUQUERQUE NM PTSUNNY   73  54  51 N10       30.16R
SALT LAKE CITY MOCLDY    77  51  40 S7        30.04R
LOS ANGELES CA CLOUDY    66  62  87 W8        29.97R
BOISE ID       CLEAR     71  43  36 SE6       30.00R
SEATTLE WA     PTCLDY    64  55  72 NW5       30.02R
$$

*** WEATHER ACROSS MANITOBA...SASKATCHEWAN AND ONTARIO ***
                ***ONTARIO***

CITY           SKY/WX    TMP DP  RH WIND       PRES   REMARKS
GERALDTON      MOSUNNY   61  52  72 VRB2      29.99S
THUNDER BAY    CLOUDY    57  54  88 W2        30.00S
SIOUX LOOKOUT  PTSUNNY   63  61  94 S5        29.94S
TORONTO        MOSUNNY   63  52  67 N7        29.98R
BIG TROUT LK   SUNNY     61  52  72 SE6       29.87F
PICKLE LAKE    MOSUNNY   63  59  88 S6        29.92S
DRYDEN         PTSUNNY   63  57  82 SW5       29.95S
KENORA         PTSUNNY   64  61  88 SW7       29.95F
$$
                *** MANITOBA***

CITY           SKY/WX    TMP DP  RH WIND       PRES   REMARKS
BRANDON        FOG       57  57 100 SW5       29.94S VSB 3/4
DAUPHIN        PTSUNNY   64  63  94 W6        29.91R FOG
ISLAND LAKE    MOSUNNY   66  59  77 SW3       29.83F
PILOT MOUND      N/A    N/A N/A N/A NW1         N/A
THE PAS        CLOUDY    64  61  88 SW6       29.88F
THOMPSON       PTSUNNY   63  54  72 SW7       29.77F
WINNIPEG       MOSUNNY   63  59  88 SW5       29.93R
LYNN LAKE      MOSUNNY   63  57  82 NW12G17   29.80R
CHURCHILL      LGT RAIN  59  59 100 S5        29.66F FOG
GILLAM         DRIZZLE   63  52  67 S9        29.74F
$$
                ***SASKATCHEWAN***

CITY           SKY/WX    TMP DP  RH WIND       PRES   REMARKS
ESTEVAN        CLOUDY    61  61 100 W3        30.01R FOG
KINDERSLEY     MOSUNNY   59  57  94 NW5       30.09S SMOKE
LLOYDMINSTER   SUNNY     61  59  94 W6        30.07S
PRINCE ALBERT    N/A     61  61 100 W7        29.98S SMOKE
REGINA         PTSUNNY   61  59  94 W3        30.03R
YORKTON        CLOUDY    63  61  94 NW6       29.96S FOG


USA.gov is the U.S. government's official web portal to all federal, state and local government web resources and services.